Weather History for Stuart, FL

Change the Weather History Date:

Saturday, May 4, 2013

  Actual Average Record
Temperature  
Mean Temperature 76 °F -  
Max Temperature 86 °F 84 °F 95 °F (1984)
Min Temperature 66 °F 68 °F 45 °F (1971)
Cooling Degree Days 11    
Growing Degree Days 26 (Base 50)    
Moisture  
Dew Point 67 °F    
Average Humidity 83    
Maximum Humidity 100    
Minimum Humidity 45    
Precipitation  
Precipitation 0.00 in - - ()
Sea Level Pressure  
Sea Level Pressure 29.75 in    
Wind  
Wind Speed 3 mph (West)    
Max Wind Speed 15 mph    
Max Gust Speed 13 mph    
Visibility 9 miles    
Events Thunderstorm    
Averages and records for this station are not official NWS values.
T = Trace of Precipitation, MM = Missing Value Source: NWS Daily Summary

Daily Weather History Graph

Daily Weather History Graph

Search for Another Location

Airport:

Trip Planner

Search our weather history database for the weather conditions in past years. The results will help you decide how hot, cold, wet, or windy it might be!

Date:

Astronomy

May. 04, 2013 Rise Set
Actual Time 6:39 AM EDT 7:55 PM EDT
Civil Twilight 6:14 AM EDT 8:20 PM EDT
Nautical Twilight 5:45 AM EDT 8:50 PM EDT
Astronomical Twilight 5:15 AM EDT 9:20 PM EDT
Moon 3:08 AM EDT (5/4) 3:17 PM EDT (5/4)
Length of Visible Light 14h 05m
Length of Day
13h 16m
Waning Crescent, 27% of the Moon is Illuminated
May 4
Waning Crescent
May 9
New
May 18
First Quarter
May 25
Full
May 31
Last Quarter

Hourly Weather History & Observations

Time (EDT) Temp. Heat Index Dew Point Humidity Pressure Visibility Wind Dir Wind Speed Gust Speed Precip Events Conditions
12:15 AM 71.6 °F - 68.0 °F 88% 29.76 in 10.0 mi SSW 3.5 mph - N/A   Clear
12:35 AM 69.8 °F - 68.0 °F 94% 29.75 in 10.0 mi SSW 3.5 mph - N/A   Clear
12:55 AM 69.8 °F - 68.0 °F 94% 29.75 in 10.0 mi South 3.5 mph - N/A   Clear
1:15 AM 69.8 °F - 66.2 °F 88% 29.74 in 10.0 mi Calm Calm - N/A   Clear
1:35 AM 69.8 °F - 68.0 °F 94% 29.74 in 10.0 mi Calm Calm - N/A   Clear
1:55 AM 69.8 °F - 68.0 °F 94% 29.74 in 10.0 mi Calm Calm - N/A   Clear
2:15 AM 69.8 °F - 68.0 °F 94% 29.73 in 10.0 mi Calm Calm - N/A   Clear
2:35 AM 68.0 °F - 66.2 °F 94% 29.72 in 10.0 mi Calm Calm - N/A   Clear
2:55 AM 68.0 °F - 66.2 °F 94% 29.71 in 10.0 mi Calm Calm - N/A   Scattered Clouds
3:15 AM 69.8 °F - 68.0 °F 94% 29.72 in 10.0 mi WSW 4.6 mph - N/A   Scattered Clouds
3:35 AM 69.8 °F - 68.0 °F 94% 29.72 in 10.0 mi West 3.5 mph - N/A   Mostly Cloudy
3:55 AM 69.8 °F - 68.0 °F 94% 29.72 in 10.0 mi Calm Calm - N/A   Overcast
4:15 AM 69.8 °F - 68.0 °F 94% 29.72 in 10.0 mi West 4.6 mph - N/A   Overcast
4:35 AM 69.8 °F - 68.0 °F 94% 29.72 in 10.0 mi West 3.5 mph - N/A Thunderstorm Scattered Clouds
4:55 AM 68.0 °F - 66.2 °F 94% 29.72 in 10.0 mi Calm Calm - N/A   Clear
5:15 AM 68.0 °F - 66.2 °F 94% 29.72 in 10.0 mi Calm Calm - N/A   Clear
5:35 AM 68.0 °F - 66.2 °F 94% 29.73 in 10.0 mi Calm Calm - N/A   Clear
5:55 AM 68.0 °F - 64.4 °F 88% 29.72 in 10.0 mi Calm Calm - N/A   Clear
6:15 AM 68.0 °F - 64.4 °F 88% 29.73 in 10.0 mi Calm Calm - N/A   Clear
6:47 AM 66.2 °F - 66.2 °F 100% 29.69 in 7.0 mi Calm Calm - N/A   Partly Cloudy
7:50 AM 69.8 °F - 68.0 °F 94% 29.76 in 7.0 mi Calm Calm - N/A   Mostly Cloudy
8:13 AM 71.6 °F - 69.8 °F 94% 29.76 in 7.0 mi Calm Calm - N/A   Partly Cloudy
8:47 AM 71.6 °F - 68.0 °F 88% 29.76 in 7.0 mi Calm Calm - N/A   Scattered Clouds
8:55 AM 73.4 °F - 68.0 °F 83% 29.76 in 7.0 mi Calm Calm - N/A   Mostly Cloudy
9:47 AM 73.4 °F - 68.0 °F 83% 29.77 in 7.0 mi West 10.4 mph - N/A   Overcast
10:47 AM 75.2 °F - 68.0 °F 78% 29.79 in 7.0 mi West 15.0 mph - N/A   Mostly Cloudy
11:47 AM 75.2 °F - 66.2 °F 73% 29.79 in 7.0 mi West 10.4 mph - N/A   Mostly Cloudy
12:47 PM 86.0 °F 96.9 °F 77.0 °F 74% 29.76 in 7.0 mi West 13.8 mph - N/A   Mostly Cloudy
2:47 PM 84.2 °F 84.4 °F 60.8 °F 45% 29.73 in 7.0 mi West 11.5 mph - N/A   Mostly Cloudy
3:47 PM 84.2 °F 85.0 °F 62.6 °F 48% 29.71 in 7.0 mi WNW 9.2 mph - N/A   Mostly Cloudy
4:47 PM 84.2 °F 85.0 °F 62.6 °F 48% 29.72 in 7.0 mi West 11.5 mph - N/A   Mostly Cloudy
5:47 PM 82.4 °F 84.6 °F 66.2 °F 58% 29.72 in 7.0 mi WNW 6.9 mph - N/A   Mostly Cloudy
8:15 PM 77.0 °F - 69.8 °F 78% 29.74 in 4.0 mi East 4.6 mph - N/A   Haze
8:35 PM 77.0 °F - 69.8 °F 78% 29.75 in 10.0 mi East 4.6 mph - N/A   Scattered Clouds
8:55 PM 77.0 °F - 69.8 °F 78% 29.76 in 10.0 mi East 4.6 mph - N/A   Scattered Clouds
9:15 PM 75.2 °F - 69.8 °F 83% 29.77 in 10.0 mi Calm Calm - N/A   Scattered Clouds
9:35 PM 77.0 °F - 69.8 °F 78% 29.77 in 10.0 mi Calm Calm - N/A   Mostly Cloudy
9:55 PM 77.0 °F - 71.6 °F 83% 29.78 in 10.0 mi Calm Calm - N/A   Overcast
10:15 PM 77.0 °F - 68.0 °F 74% 29.79 in 10.0 mi WSW 6.9 mph - N/A   Mostly Cloudy
10:35 PM 77.0 °F - 68.0 °F 74% 29.79 in 10.0 mi WNW 8.1 mph 11.5 mph N/A   Overcast
10:55 PM 75.2 °F - 66.2 °F 73% 29.80 in 10.0 mi West 9.2 mph 12.7 mph N/A   Overcast
11:15 PM 73.4 °F - 66.2 °F 78% 29.81 in 10.0 mi West 11.5 mph - N/A   Scattered Clouds
11:35 PM 73.4 °F - 66.2 °F 78% 29.81 in 10.0 mi WNW 9.2 mph - N/A   Clear
11:55 PM 73.4 °F - 66.2 °F 78% 29.82 in 10.0 mi WNW 6.9 mph - N/A   Clear